星链-32093 (STARLINK-32093 )

导读

STARLINK-32093是美国SpaceX公司星链(Starlink)星座的成员卫星,于2024年5月8日发射入轨,属于星链低轨宽带通信卫星。该卫星采用平板设计,搭载氪工质霍尔推进器,运行在近地轨道,具备自主避撞能力,主要服务全球宽带互联网覆盖,退役后会主动离轨再入大气层销毁,降低空间碎片风险。

Basic Information
目录编号:
59701
目录名称:
STARLINK-32093
国际标识:
2024-086V
轨道中心:
EARTH
卫星名称:
星链-32093
卫星全名:
星链-32093 (STARLINK-32093 )
卫星状态:
在轨 (已飞行771 天)
发射日期:
2024-05-08 UTC
国别 :
美国 (US)
星等 :
--
Orbit Information
数据来源 国际轨道数据 AOE轨道数据
星历时间 2026-06-17T03:56:01+0800
1天前
查看轨道信息
2026-06-15T07:00:00+0800
3天前
查看轨道信息
半长轴 6861.192km 6861.161km
偏心率 0.0001369 0.0000033
轨道倾角 43.002° 42.992°
近地点辐角 275.411° 134.167°
升交点赤经 220.068° 230.648°
平近点角 84.659° 357.851°
近地点 482.115km 483.001km
远地点 483.995km 483.047km
周期 94.267分钟 94.266分钟
每日圈数 15.275781 15.275887
Detailed Information
固有亮度:
5
最大亮度:
1.5
卫星平台:
Starlink v2.0 mini
覆盖范围:
全球
运营商:
太空探索技术公司
运营商所在国:
美国
制造商(研发单位):
太空探索技术公司
制造商所在国:
美国
使用方式:
暂无
Satellite Introduction
星链(Starlink)计划是由太空探索技术公司(SpaceX)提出的一个巨型低轨卫星互联网星座项目,计划在2019年至2024年间在太空搭建由约1.2万颗卫星组成的“星链”网络,其中1584颗将部署在地球上空550千米处的近地轨道,并从2020年开始工作。该卫星仍在工作。
2D Orbit Map
3D Orbit Map
Orbit Altitude Analysis Chart
Orbit Inclination Analysis Chart
Orbit Comprehensive Analysis Chart
View Comprehensive Chart